Location: Warszawa
(52.2500°N, 21.0000°E)
Time: 18:35:32
(UTC+02:00)

ITUPSAT 1 - Pass Details

Date: 27 April 2024
Orbit: 694 x 707 km, 98.5° (Epoch: 21 May)

Event Time Altitude Azimuth Distance (km) Brightness Sun altitude
Rises 23:18:36 0° 12° (NNE) 3,090 ? -21.6°
Reaches altitude 10° 23:20:53 10° 9° (N) 2,167 ? -21.7°
Maximum altitude 23:25:32 59° 291° (WNW) 807 ? -21.9°
Enters shadow 23:27:29 33° 226° (SW) 1,163 ? -22.0°
